EW8494 Weather Reports


Display with metric or nautical units.
time (UTC)temp
F
wind
direction
speed
MPH
gust
MPH
rain 1hr
in
rain 24hr
in
rain mn
in
humidity
%
barometer
mb
20260507015428 75 313 6.0 0.0 0.00 0.00 0.00 28
20260507014411 75 0.0 0.0 0.00 0.00 0.00 28
20260507013346 75 338 12.0 14.0 0.00 0.00 0.00 28
20260507012307 75 338 7.0 11.0 0.00 0.00 0.00 27
20260507011225 76 338 8.0 11.0 0.00 0.00 0.00 29
20260507010210 77 338 9.0 13.0 0.00 0.00 0.00 29
20260507005219 77 315 4.0 8.0 0.00 0.00 0.00 30
20260507004209 79 338 3.0 5.0 0.00 0.00 0.00 36
20260507003209 79 293 4.0 9.0 0.00 0.00 0.00 31
20260507002214 80 248 6.0 9.0 0.00 0.00 0.00 31
20260507001227 80 225 3.0 5.0 0.00 0.00 0.00 35
20260507000247 81 203 3.0 7.0 0.00 0.00 0.00 35
20260506235208 81 225 4.0 6.0 0.00 0.00 0.00 35
20260506234208 81 225 4.0 8.0 0.00 0.00 0.00 35
20260506233227 81 203 4.0 10.0 0.00 0.00 0.00 32
20260506232206 81 203 6.0 14.0 0.00 0.00 0.00 32
20260506231206 81 203 6.0 13.0 0.00 0.00 0.00 29
20260506230206 83 203 5.0 11.0 0.00 0.00 0.00 27
20260506225204 83 203 7.0 13.0 0.00 0.00 0.00 25
20260506224206 82 203 7.0 14.0 0.00 0.00 0.00 26
20260506223205 82 203 6.0 9.0 0.00 0.00 0.00 27
20260506222205 81 203 5.0 11.0 0.00 0.00 0.00 28
20260506221225 82 203 5.0 10.0 0.00 0.00 0.00 28
20260506220203 82 203 7.0 11.0 0.00 0.00 0.00 27
20260506215225 80 203 7.0 12.0 0.00 0.00 0.00 28
20260506214203 80 203 8.0 14.0 0.00 0.00 0.00 30
20260506213202 82 203 8.0 16.0 0.00 0.00 0.00 28
20260506212202 81 203 9.0 14.0 0.00 0.00 0.00 27
20260506211204 82 203 10.0 17.0 0.00 0.00 0.00 28
20260506210222 81 203 8.0 13.0 0.00 0.00 0.00 29